Location: Anigandlap?du
(16.8914°N, 80.2867°E)
Time: 13:58:25
(UTC+00:00)

Daily predictions for brighter satellites

Satellite Brightness Start Highest point End
(mag) Time Altitude Azimuth Time Altitude Azimuth Time Altitude Azimuth
CZ-2D R/B 3.9 12:20:51 10° SE 12:24:22 34° ENE 12:27:51 10° N
Cosmos 2360 4.2 12:24:00 10° N 12:29:40 64° ENE 12:35:17 10° SSE
SKYMED 2 3.5 12:26:01 10° NNE 12:30:21 79° ESE 12:34:41 10° S
Cosmos 2084 3.5 12:28:19 10° NNW 12:32:49 75° ENE 12:37:27 10° SSE
Cosmos 1500 3.1 12:30:38 10° N 12:34:20 86° E 12:38:03 10° S
Atlas Centaur 2 3.9 12:32:10 10° WSW 12:34:29 16° SSW 12:36:46 10° S
Sich 1 3.2 12:31:24 10° N 12:35:42 77° W 12:40:03 10° S
Meteor 1-10 Rocket 4.3 12:30:09 10° S 12:35:57 67° E 12:41:39 10° NNE
GPS 2-15 Rocket1 3.2 12:38:17 10° WNW 12:42:56 64° N 12:47:07 12° E
Cosmos 858 Rocket 4.5 12:38:10 10° NNW 12:43:26 84° ENE 12:48:39 10° SSE
H-2A R/B 3.7 12:41:17 11° ENE 12:43:51 17° E 12:46:40 10° SE
Cosmos 1515 Rocket 3.6 12:40:34 10° S 12:44:58 65° E 12:49:22 10° NNE
Meteor 2-16 Rocket 4.5 12:39:46 10° N 12:45:48 62° E 12:51:52 10° SSE
Centaur AC-69 2.5 12:42:38 10° W 12:47:09 75° SSW 12:49:16 12° ESE
Meteor 2-15 Rocket 4.4 12:42:01 10° S 12:48:05 65° E 12:54:08 10° NNE
Aureole 3 Rocket 3.3 12:47:23 10° SSE 12:50:26 33° E 12:54:13 10° NNE
Genesis I 3.2 12:50:09 10° SSW 12:53:53 60° ESE 12:57:09 14° NE
CZ-4C R/B 3.8 12:49:53 10° N 12:56:52 30° ENE 13:04:15 10° ESE
PSLV R/B 4.5 12:55:34 10° S 12:59:08 53° W 13:02:43 10° NNW
CZ-4 R/B 3.6 12:56:48 10° ESE 12:56:50 10° ESE 12:56:50 10° ESE
Cosmos 1697 Rocket 3.6 12:55:25 10° NNW 13:00:51 52° WSW 13:06:16 10° S
Cosmos 1666 2.8 12:59:46 10° N 13:03:27 73° W 13:07:09 10° S
Cosmos 1980 Rocket 2.1 13:00:34 10° NNW 13:06:11 74° ENE 13:11:45 10° SSE
USA 276 1.9 13:05:28 10° NW 13:08:33 69° NE 13:10:42 18° SE
YAOGAN 1 3.8 13:08:23 10° SE 13:10:44 22° E 13:10:44 22° E
Cosmos 2369 4.0 13:06:55 10° NNW 13:12:35 70° WSW 13:18:13 10° S
Cosmos 2266 Rocket 4.2 13:07:03 10° N 13:13:16 52° E 13:19:27 10° SSE
SL-27 R/B 3.2 13:10:19 10° SSE 13:13:12 30° ESE 13:13:12 30° ESE
ARGOS 3.1 13:09:45 10° SSE 13:15:08 70° ENE 13:20:31 10° N
CZ-4 R/B 4.3 13:11:39 10° SSE 13:15:43 69° ENE 13:19:48 10° N
Cosmos 1515 3.7 13:13:57 10° S 13:17:36 53° E 13:18:56 34° NE
DMSP B5D2-2 4.0 13:14:02 10° NNE 13:19:16 89° W 13:24:31 10° SSW
Cosmos 783 Rocket 4.4 13:18:46 10° S 13:24:00 71° ESE 13:27:18 23° NNE
Cosmos 1633 Rocket 4.2 13:20:06 10° NNW 13:24:16 45° W 13:28:28 10° SSW
Cosmos 1356 Rocket 3.8 13:26:00 42° E 13:26:00 42° E 13:29:52 10° SSE
USA 234 3.8 13:27:32 31° ENE 13:28:54 33° NE 13:34:36 10° NNW
Meteosat 1 Rocket2 3.4 13:25:49 10° W 13:29:46 40° NNW 13:30:23 37° N
H-2A R/B 3.5 13:25:47 10° SSW 13:30:40 38° W 13:35:27 10° NNW
Okean O Rocket 2.0 13:29:12 10° S 13:33:35 65° WSW 13:38:00 10° NNW
Delta 2 Rocket 4.0 13:29:20 10° WSW 13:33:40 46° NNW 13:34:33 39° N
Cosmos 2278 3.7 13:30:15 10° NNW 13:35:56 84° WSW 13:41:35 10° SSE
Cosmos 773 Rocket 3.9 13:32:19 10° SSW 13:37:36 88° ESE 13:40:13 31° NNE
GPS 2-12 Rocket1 2.8 13:40:27 10° WSW 13:44:55 85° S 13:45:03 83° ESE
CZ-4B R/B 4.4 13:41:52 10° S 13:47:01 41° WSW 13:52:05 10° NNW
Cosmos 1933 Rocket 3.5 13:48:07 43° NNW 13:49:27 78° W 13:53:46 10° S
Spot 2 4.3 13:47:59 10° SSE 13:53:01 83° ENE 13:55:43 29° N
Cosmos 1544 4.4 13:53:30 26° NW 13:54:55 37° W 13:58:18 10° SSW
Aurora 2 Rocket 3.3 13:50:03 10° WNW 13:55:27 86° SSW 13:57:23 51° ESE
Okean 1 4.2 13:52:52 10° S 13:55:37 42° SSW 13:55:37 42° SSW
SWIFT 3.4 13:59:46 10° W 14:03:09 42° SW 14:03:09 42° SW
DNEPR-1 R/B 4.2 14:03:48 10° SSW 14:08:45 63° W 14:08:45 63° W
Cosmos 1553 Rocket 3.9 14:12:17 10° S 14:18:35 81° W 14:18:38 81° WNW
H-2A R/B 4.1 14:18:22 22° NW 14:19:37 25° WNW 14:23:13 10° SW
BREEZE M DEB (TANK) 4.0 14:12:59 10° NW 14:18:21 39° WNW 14:18:21 39° WNW
ATLAS 5 CENTAUR R/B 2.3 14:12:44 10° W 14:18:36 43° W 14:18:36 43° W
CZ-4 R/B 3.9 14:30:45 10° SSW 14:32:49 20° WSW 14:32:49 20° WSW
ATLAS 3B CENTAUR R/B 4.4 14:26:16 10° WNW 14:45:19 57° N 14:46:49 55° NNE
CZ-4C R/B 4.0 14:37:37 10° NW 14:45:34 48° WSW 14:53:50 10° S
Cosmos 2082 Rocket 3.8 22:17:14 29° SE 22:17:14 29° SE 22:19:57 10° SSE
Centaur D-1A AC-31 3.0 22:40:40 26° NE 22:40:40 26° NE 22:44:24 10° E
SJ 16-02 4.2 22:47:19 10° SE 22:50:02 16° E 22:52:45 10° ENE
GPS 2-17 Rocket1 4.0 22:57:13 39° SSE 22:57:13 39° SSE 23:01:14 10° E
GPS 2-18 Rocket1 4.0 23:04:54 47° ESE 23:04:54 47° ESE 23:07:50 10° ESE
FUSE 4.0 23:07:55 60° N 23:07:55 60° N 23:13:07 10° ENE
ASTRO E2 2.8 23:14:26 71° SE 23:14:26 71° SE 23:18:15 10° ENE
Cosmos 1354 Rocket 3.8 23:09:18 10° SSW 23:14:31 78° WNW 23:19:48 10° N
OAO 3 Rocket 3.8 23:14:00 42° N 23:14:52 46° NNE 23:19:37 10° ESE
Centaur AC-72 3.2 23:13:09 29° WSW 23:16:17 68° SSE 23:27:17 10° E
SJ-12 4.4 23:13:42 10° NNE 23:17:47 60° E 23:21:50 10° S
Cosmos 1933 3.5 23:21:59 53° SW 23:21:59 53° SW 23:25:18 10° S
Cosmos 1812 4.4 23:18:12 10° NNE 23:21:39 32° E 23:25:06 10° SSE
YAOGAN 6 2.4 23:24:56 33° N 23:26:26 90° SE 23:30:00 10° S
Cosmos 1814 Rocket 4.2 23:28:13 43° WNW 23:28:58 46° W 23:33:53 10° S
Meteor 1-26 Rocket 4.1 23:25:17 11° N 23:30:47 82° W 23:36:19 10° S
Cosmos 1570 Rocket 4.1 23:29:08 38° NW 23:30:51 54° WSW 23:35:59 10° S
Delta 168 3.9 23:30:07 39° WNW 23:31:51 55° N 23:39:12 10° ENE
Cosmos 1151 Rocket 4.0 23:30:35 10° N 23:34:47 47° E 23:38:57 10° SSE
Okean 3 Rocket 3.6 23:33:29 10° SSW 23:37:55 59° W 23:42:24 10° N
Gbstr 26 Del rocket 3.3 23:36:09 29° NNW 23:38:08 63° NE 23:42:50 10° SE
Cosmos 1766 Rocket 3.7 23:34:09 10° SSW 23:38:20 47° W 23:41:53 14° NNW
ARIANE DEB (SYLDA) 4.5 23:30:16 15° WSW 23:40:19 35° SSW 23:44:38 10° SE
ATLAS 3B R/B 2.6 23:39:53 10° SW 23:46:09 57° WNW 23:52:34 10° NNE
MOS 1-B Rocket 4.4 23:40:45 10° SSE 23:47:40 72° ENE 23:53:38 10° N
SL-4 R/B 2.5 23:48:36 29° NNW 23:48:36 29° NNW 23:51:14 10° NNE
OAO 2 Rocket 4.2 23:46:55 26° WNW 23:48:39 33° NNW 23:53:16 10° NE
ADEOS 4.0 23:45:16 10° NNE 23:50:26 67° ESE 23:55:36 10° S
H-2A R/B 3.1 23:48:43 10° N 23:52:14 38° WNW 23:55:47 10° SSW
Hubble Space Telescope 0.8 23:50:54 28° W 23:52:57 66° SSW 23:57:00 10° SE
